EW8359 Weather Reports


time (UTC)temp
C
wind
direction
speed
KPH
gust
KPH
rain 1hr
cm
rain 24hr
cm
rain mn
cm
humidity
%
barometer
mb
20260901063015 12 186 0.0 3.2 0.00 0.00 0.00 90 1015.9
20260901061511 12 186 0.0 0.0 0.00 0.00 0.00 89 1015.8
20260901060009 12 186 0.0 3.2 0.00 0.00 0.00 89 1015.9
20260901054508 12 186 0.0 1.6 0.00 0.00 0.00 89 1015.7
20260901053007 12 186 0.0 1.6 0.00 0.00 0.00 89 1015.7
20260901051505 12 186 0.0 1.6 0.00 0.00 0.00 89 1015.8
20260901050004 13 186 0.0 1.6 0.00 0.00 0.00 89 1016.0
20260901044505 13 186 0.0 1.6 0.00 0.00 0.00 89 1015.9
20260901043003 13 186 0.0 1.6 0.00 0.00 0.00 89 1015.9
20260901041600 13 186 0.0 1.6 0.00 0.00 0.00 89 1015.9
20260901040059 13 186 0.0 1.6 0.00 0.00 0.00 88 1015.7
20260901034605 13 186 0.0 1.6 0.00 0.00 0.00 88 1015.9
20260901033057 13 186 0.0 1.6 0.00 0.00 0.00 87 1015.9
20260901031559 13 186 0.0 1.6 0.00 0.00 0.00 87 1015.8
20260901030056 13 186 0.0 3.2 0.00 0.00 0.00 87 1015.8
20260901024603 13 186 0.0 1.6 0.00 0.00 0.00 87 1015.8
20260901023054 13 186 1.6 3.2 0.00 0.00 0.00 87 1015.8
20260901021616 14 186 0.0 1.6 0.00 0.00 0.00 86 1015.9
20260901020111 15 186 0.0 3.2 0.00 0.00 0.00 85 1015.9
20260901014557 15 186 0.0 3.2 0.00 0.03 0.00 84 1015.8
20260901013104 15 186 0.0 3.2 0.00 0.03 0.00 85 1015.8
20260901011554 15 186 0.0 1.6 0.00 0.03 0.00 84 1015.9
20260901010052 15 186 1.6 4.8 0.00 0.03 0.00 84 1015.8
20260901004552 15 179 0.0 1.6 0.00 0.03 0.00 84 1015.8
20260901003054 16 179 0.0 1.6 0.00 0.03 0.00 83 1015.9
20260901001606 16 179 0.0 0.0 0.00 0.03 0.00 83 1015.7
20260901000056 16 179 0.0 1.6 0.00 0.03 0.00 81 1015.6
20260831234602 17 179 0.0 1.6 0.00 0.03 0.00 80 1015.6
20260831233050 17 179 0.0 3.2 0.00 0.03 0.00 77 1015.6
20260831231548 18 177 0.0 3.2 0.00 0.03 0.00 75 1015.8
20260831230046 18 177 0.0 3.2 0.00 0.03 0.00 73 1016.0
20260831224544 19 177 0.0 3.2 0.00 0.03 0.00 70 1015.9
20260831223045 20 176 1.6 4.8 0.00 0.03 0.00 68 1015.8
20260831221543 20 174 0.0 4.8 0.00 0.03 0.00 64 1015.9
20260831220058 21 163 4.8 11.3 0.00 0.03 0.00 62 1015.8
20260831214546 21 161 1.6 8.0 0.00 0.03 0.00 61 1015.7
20260831213042 21 154 1.6 11.3 0.00 0.03 0.00 59 1015.8
20260831211548 22 177 1.6 9.7 0.00 0.03 0.00 58 1015.7
20260831210048 22 158 1.6 11.3 0.00 0.03 0.00 56 1015.8
20260831204540 23 236 3.2 11.3 0.00 0.03 0.00 53 1015.8
20260831203039 23 44 3.2 9.7 0.00 0.03 0.00 54 1015.9
20260831201546 22 212 1.6 12.9 0.00 0.03 0.00 56 1015.8
20260831200043 22 194 3.2 12.9 0.00 0.03 0.00 56 1015.8
20260831194613 23 150 3.2 14.5 0.00 0.03 0.00 50 1016.0
20260831193041 25 156 1.6 11.3 0.00 0.03 0.00 50 1016.2
20260831191540 25 115 3.2 12.9 0.00 0.03 0.00 41 1016.1
20260831190040 26 277 1.6 6.4 0.00 0.03 0.00 37 1016.2
20260831184554 25 148 0.0 6.4 0.00 0.03 0.00 39 1016.4
20260831183039 25 163 1.6 11.3 0.00 0.03 0.00 41 1016.3
20260831181533 25 178 1.6 6.4 0.00 0.03 0.00 42 1016.5
20260831180034 25 26 3.2 8.0 0.00 0.03 0.00 36 1016.6
20260831174530 25 309 0.0 8.0 0.00 0.03 0.00 39 1016.7
20260831173033 24 144 1.6 8.0 0.00 0.03 0.00 36 1017.1
20260831171527 24 294 1.6 6.4 0.00 0.03 0.00 36 1017.1
20260831170025 23 240 0.0 8.0 0.00 0.03 0.00 37 1017.4
20260831164524 23 300 0.0 8.0 0.00 0.03 0.00 40 1017.4
20260831163024 23 59 3.2 8.0 0.00 0.03 0.00 38 1017.7
20260831161522 23 132 1.6 12.9 0.00 0.03 0.00 42 1017.9
20260831160027 23 127 1.6 6.4 0.00 0.03 0.00 42 1018.0
20260831154519 22 109 0.0 6.4 0.00 0.03 0.00 48 1018.0
20260831153015 22 348 3.2 8.0 0.00 0.03 0.00 45 1018.1
20260831151513 21 79 1.6 16.1 0.00 0.03 0.00 49 1018.2
20260831150015 21 96 1.6 14.5 0.00 0.03 0.00 51 1018.3
20260831144517 21 9 3.2 11.3 0.00 0.03 0.00 52 1018.5
20260831143007 20 5 3.2 8.0 0.00 0.03 0.00 51 1018.7
20260831141503 20 50 3.2 11.3 0.00 0.03 0.00 53 1018.8
20260831140108 19 19 1.6 9.7 0.00 0.03 0.00 59 1018.7
20260831134600 18 43 4.8 14.5 0.00 0.03 0.00 60 1018.7
20260831133055 18 52 4.8 8.0 0.00 0.03 0.00 64 1018.5
20260831131552 18 28 3.2 6.4 0.00 0.03 0.00 68 1018.4
20260831130053 17 63 1.6 8.0 0.00 0.03 0.00 68 1018.4
20260831124551 18 44 1.6 4.8 0.00 0.03 0.00 70 1018.3
20260831123048 17 339 1.6 4.8 0.00 0.03 0.00 71 1018.3
20260831121544 16 296 0.0 3.2 0.00 0.03 0.00 83 1018.2
20260831120041 13 297 0.0 3.2 0.00 0.03 0.00 89 1018.1
20260831114541 12 287 0.0 1.6 0.00 0.03 0.00 90 1018.1
20260831113040 11 287 0.0 1.6 0.00 0.03 0.00 90 1018.1
20260831111602 11 287 0.0 1.6 0.00 0.03 0.00 89 1018.1
20260831110050 11 287 0.0 1.6 0.00 0.03 0.00 89 1017.9
20260831104535 11 287 0.0 1.6 0.00 0.03 0.00 88 1017.8
20260831103033 10 287 0.0 1.6 0.00 0.03 0.00 88 1017.6
20260831101531 11 287 0.0 0.0 0.00 0.03 0.00 88 1017.5
20260831100028 11 287 0.0 1.6 0.00 0.03 0.00 87 1017.5
20260831094529 11 287 0.0 1.6 0.00 0.03 0.00 87 1017.2
20260831093024 12 287 0.0 3.2 0.00 0.03 0.00 87 1017.1
20260831091521 12 287 0.0 1.6 0.00 0.03 0.00 87 1017.0
20260831090020 12 287 0.0 1.6 0.00 0.03 0.00 87 1016.9
20260831084532 12 288 0.0 3.2 0.00 0.03 0.00 87 1016.6
20260831083016 12 284 0.0 3.2 0.00 0.03 0.00 87 1016.6
20260831081521 12 285 0.0 1.6 0.00 0.03 0.00 87 1016.5
20260831080011 12 285 0.0 0.0 0.00 0.03 0.00 86 1016.5
20260831074529 13 285 0.0 1.6 0.00 0.03 0.00 86 1016.3
20260831073011 13 285 0.0 4.8 0.00 0.03 0.00 86 1016.3
20260831071505 13 254 0.0 3.2 0.00 0.03 0.00 87 1016.3
20260831070004 13 259 0.0 3.2 0.00 0.03 0.00 87 1016.1
20260831064507 13 300 0.0 4.8 0.00 0.03 0.00 87 1016.0